Weather History for Fryeburg, ME

Change the Weather History Date:

Wednesday, January 30, 2013

  Actual Average Record
Temperature  
Mean Temperature 36 °F -  
Max Temperature 41 °F 29 °F 43 °F (2000)
Min Temperature 30 °F 4 °F -18 °F (1997)
Degree Days  
Heating Degree Days 30    
Moisture  
Dew Point 34 °F    
Average Humidity 99    
Maximum Humidity 100    
Minimum Humidity 93    
Precipitation  
Precipitation 0.18 in - - ()
Sea Level Pressure  
Sea Level Pressure 29.76 in    
Wind  
Wind Speed 0 mph (SE)    
Max Wind Speed 5 mph    
Max Gust Speed -    
Visibility 2 miles    
Events Fog , Rain    
Averages and records for this station are not official NWS values.
T = Trace of Precipitation, MM = Missing Value Source: NWS Daily Summary

Daily Weather History Graph

Daily Weather History Graph

Search for Another Location

Airport:

Trip Planner

Search our weather history database for the weather conditions in past years. The results will help you decide how hot, cold, wet, or windy it might be!

Date:

Astronomy

Jan. 30, 2013 Rise Set
Actual Time 7:03 AM EST 4:51 PM EST
Civil Twilight 6:32 AM EST 5:22 PM EST
Nautical Twilight 5:57 AM EST 5:57 PM EST
Astronomical Twilight 5:23 AM EST 6:31 PM EST
Moon 8:57 PM EST (1/30) 8:20 AM EST (1/30)
Length of Visible Light 10h 50m
Length of Day
9h 48m
Waning Gibbous, 88% of the Moon is Illuminated
Jan 30
Waning Gibbous
Feb 3
Last Quarter
Feb 10
New
Feb 17
First Quarter
Feb 25
Full

Hourly Weather History & Observations

Time (EST) Temp. Windchill Dew Point Humidity Pressure Visibility Wind Dir Wind Speed Gust Speed Precip Events Conditions
12:09 AM 30.2 °F - 30.2 °F 100% 30.12 in 3.0 mi Calm Calm - N/A   Overcast
12:20 AM 30.2 °F - 28.4 °F 93% 30.11 in 2.5 mi Calm Calm - N/A   Overcast
12:27 AM 30.2 °F - 28.4 °F 93% 30.11 in 3.0 mi Calm Calm - N/A   Overcast
12:35 AM 30.2 °F - 28.4 °F 93% 30.11 in 2.5 mi Calm Calm - N/A   Overcast
12:54 AM 30.0 °F - 30.0 °F 100% 30.12 in 2.5 mi Calm Calm - N/A   Overcast
1:23 AM 30.2 °F - 30.2 °F 100% 30.09 in 2.0 mi Calm Calm - 0.00 in Rain Light Freezing Rain
1:54 AM 30.9 °F - 30.0 °F 96% 30.10 in 2.0 mi Calm Calm - 0.01 in Rain Light Freezing Rain
2:20 AM 30.2 °F - 30.2 °F 100% 30.06 in 2.5 mi Calm Calm - 0.00 in   Overcast
2:28 AM 30.2 °F - 30.2 °F 100% 30.06 in 3.0 mi Calm Calm - 0.00 in   Overcast
2:54 AM 30.9 °F - 30.9 °F 100% 30.08 in 3.0 mi Calm Calm - 0.01 in   Overcast
3:12 AM 30.2 °F - 30.2 °F 100% 30.04 in 3.0 mi Calm Calm - 0.00 in   Overcast
3:23 AM 32.0 °F - 30.2 °F 93% 30.02 in 2.5 mi Calm Calm - 0.02 in   Overcast
3:29 AM 32.0 °F - 30.2 °F 93% 30.02 in 1.8 mi Calm Calm - 0.03 in   Overcast
3:54 AM 32.0 °F - 32.0 °F 100% 30.04 in 3.0 mi Calm Calm - 0.04 in Rain Light Freezing Rain
4:21 AM 32.0 °F - 30.2 °F 93% 30.00 in 5.0 mi Calm Calm - 0.01 in Rain Light Freezing Rain
4:40 AM 33.8 °F - 32.0 °F 93% 30.00 in 10.0 mi Calm Calm - 0.01 in   Overcast
4:54 AM 33.1 °F - 32.0 °F 96% 30.02 in 8.0 mi Calm Calm - 0.01 in   Overcast
5:14 AM 33.8 °F - 32.0 °F 93% 29.99 in 4.0 mi Calm Calm - N/A   Overcast
5:33 AM 33.8 °F - 32.0 °F 93% 29.98 in 2.5 mi Calm Calm - N/A   Overcast
5:43 AM 32.0 °F - 32.0 °F 100% 29.98 in 3.0 mi Calm Calm - N/A   Overcast
5:54 AM 32.0 °F - 32.0 °F 100% 29.99 in 3.0 mi Calm Calm - N/A   Overcast
6:03 AM 32.0 °F - 32.0 °F 100% 29.97 in 2.5 mi Calm Calm - N/A   Overcast
6:20 AM 32.0 °F - 32.0 °F 100% 29.97 in 3.0 mi Calm Calm - N/A   Overcast
6:26 AM 32.0 °F - 32.0 °F 100% 29.96 in 1.8 mi Calm Calm - N/A   Overcast
6:34 AM 32.0 °F - 32.0 °F 100% 29.95 in 1.0 mi Calm Calm - N/A   Overcast
6:44 AM 32.0 °F - 32.0 °F 100% 29.95 in 1.8 mi Calm Calm - N/A   Overcast
6:51 AM 32.0 °F - 32.0 °F 100% 29.95 in 2.0 mi Calm Calm - N/A   Overcast
7:03 AM 32.0 °F - 32.0 °F 100% 29.95 in 1.8 mi Calm Calm - N/A   Overcast
7:16 AM 32.0 °F - 32.0 °F 100% 29.94 in 1.0 mi Calm Calm - 0.01 in   Overcast
7:52 AM 32.0 °F - 32.0 °F 100% 29.93 in 0.8 mi Calm Calm - 0.01 in   Overcast
7:54 AM 33.1 °F - 32.0 °F 96% 29.95 in 0.8 mi Calm Calm - 0.01 in   Overcast
8:03 AM 32.0 °F - 32.0 °F 100% 29.93 in 1.0 mi Calm Calm - N/A   Overcast
8:22 AM 32.0 °F - 32.0 °F 100% 29.92 in 0.8 mi Calm Calm - N/A   Overcast
8:31 AM 33.8 °F - 32.0 °F 93% 29.91 in 1.2 mi Calm Calm - N/A   Overcast
8:45 AM 32.0 °F - 32.0 °F 100% 29.90 in 0.8 mi Calm Calm - N/A   Overcast
8:54 AM 33.1 °F - 32.0 °F 96% 29.91 in 0.5 mi Calm Calm - N/A Fog Fog
9:13 AM 33.8 °F - 33.8 °F 100% 29.88 in - Calm Calm - N/A   Overcast
9:20 AM 33.8 °F - 33.8 °F 100% 29.88 in 1.0 mi Calm Calm - N/A   Overcast
9:31 AM 33.8 °F - 32.0 °F 93% 29.87 in - Calm Calm - 0.00 in Rain Light Rain
9:54 AM 33.1 °F - 33.1 °F 100% 29.86 in 0.5 mi Calm Calm - 0.00 in Fog Fog
10:02 AM 33.8 °F - 33.8 °F 100% 29.84 in - Calm Calm - N/A   Overcast
10:27 AM 33.8 °F - 32.0 °F 93% 29.83 in 0.5 mi Calm Calm - N/A Fog Fog
10:35 AM 33.8 °F - 33.8 °F 100% 29.82 in 0.2 mi Calm Calm - N/A Fog Fog
10:44 AM 33.8 °F - 33.8 °F 100% 29.81 in 0.5 mi Calm Calm - N/A Fog Fog
10:54 AM 34.0 °F - 34.0 °F 100% 29.83 in 0.5 mi Calm Calm - N/A Fog Fog
11:02 AM 33.8 °F - 33.8 °F 100% 29.79 in - Calm Calm - N/A   Overcast
11:05 AM 33.8 °F - 33.8 °F 100% 29.79 in 0.2 mi Calm Calm - N/A Fog Fog
11:16 AM 33.8 °F - 33.8 °F 100% 29.78 in - Calm Calm - 0.01 in   Overcast
11:24 AM 33.8 °F - 33.8 °F 100% 29.78 in 0.5 mi Calm Calm - 0.01 in Fog Fog
11:41 AM 35.6 °F - 33.8 °F 93% 29.75 in 1.2 mi Calm Calm - 0.01 in   Overcast
11:52 AM 33.8 °F - 33.8 °F 100% 29.74 in 0.8 mi Calm Calm - 0.01 in   Overcast
11:54 AM 34.0 °F - 34.0 °F 100% 29.76 in 0.8 mi Calm Calm - 0.01 in   Overcast
12:06 PM 33.8 °F - 33.8 °F 100% 29.74 in 0.2 mi Calm Calm - N/A Fog Fog
12:43 PM 35.6 °F - 35.6 °F 100% 29.69 in 1.0 mi Calm Calm - N/A   Mist
12:51 PM 35.6 °F - 35.6 °F 100% 29.69 in 0.5 mi Calm Calm - N/A Fog Fog
12:54 PM 36.0 °F - 36.0 °F 100% 29.71 in 0.5 mi Calm Calm - N/A Fog Fog
1:37 PM 35.6 °F 31.7 °F 35.6 °F 100% 29.64 in 0.5 mi SE 4.6 mph - 0.00 in Fog Fog
1:47 PM 35.6 °F 32.8 °F 35.6 °F 100% 29.64 in 0.2 mi ESE 3.5 mph - 0.00 in Fog Fog
1:54 PM 36.0 °F - 36.0 °F 100% 29.65 in 0.2 mi Calm Calm - 0.00 in Fog Fog
2:54 PM 37.0 °F - 36.0 °F 96% 29.62 in 0.2 mi Calm Calm - N/A Fog Fog
3:54 PM 37.0 °F - 37.0 °F 100% 29.60 in 0.2 mi Calm Calm - 0.00 in Fog , Rain Light Rain
4:27 PM 37.4 °F - 37.4 °F 100% 29.56 in 0.8 mi Calm Calm - 0.03 in Rain Light Rain
4:54 PM 36.0 °F - 35.1 °F 97% 29.58 in 0.5 mi Calm Calm - 0.04 in Fog , Rain Light Rain
5:03 PM 35.6 °F 32.8 °F 35.6 °F 100% 29.56 in 1.5 mi South 3.5 mph - 0.00 in Rain Light Rain
5:13 PM 35.6 °F - 35.6 °F 100% 29.55 in 1.2 mi Calm Calm - 0.00 in   Overcast
5:29 PM 37.4 °F - 35.6 °F 93% 29.56 in 1.8 mi Calm Calm - 0.00 in   Overcast
5:42 PM 35.6 °F - 35.6 °F 100% 29.55 in 0.8 mi Calm Calm - 0.00 in   Overcast
5:54 PM 36.0 °F - 36.0 °F 100% 29.56 in 0.8 mi Calm Calm - 0.00 in   Overcast
6:04 PM 35.6 °F - 35.6 °F 100% 29.54 in 1.0 mi Calm Calm - N/A   Overcast
6:19 PM 35.6 °F 32.8 °F 35.6 °F 100% 29.53 in 2.0 mi ESE 3.5 mph - N/A   Overcast
6:27 PM 35.6 °F - 35.6 °F 100% 29.53 in 1.5 mi Calm Calm - N/A   Overcast
6:37 PM 37.4 °F - 35.6 °F 93% 29.53 in 3.0 mi Calm Calm - N/A   Overcast
6:54 PM 36.0 °F 33.3 °F 36.0 °F 100% 29.54 in 2.0 mi ESE 3.5 mph - 0.00 in Rain Light Rain
7:12 PM 37.4 °F - 37.4 °F 100% 29.52 in 4.0 mi Calm Calm - 0.01 in   Overcast
7:16 PM 37.4 °F 34.9 °F 37.4 °F 100% 29.52 in 1.8 mi SE 3.5 mph - 0.01 in Rain Light Rain
7:23 PM 37.4 °F - 37.4 °F 100% 29.52 in 0.8 mi Calm Calm - 0.01 in Rain Light Rain
7:47 PM 37.4 °F - 37.4 °F 100% 29.52 in 1.2 mi Calm Calm - 0.03 in Rain Light Rain
7:54 PM 39.0 °F - 39.0 °F 100% 29.52 in 1.5 mi Calm Calm - 0.03 in Rain Light Rain
8:01 PM 39.2 °F - 39.2 °F 100% 29.50 in 1.0 mi Calm Calm - 0.01 in Rain Light Rain
8:41 PM 35.6 °F - 35.6 °F 100% 29.48 in 0.5 mi Calm Calm - 0.01 in Fog , Rain Light Rain
8:54 PM 37.0 °F 34.5 °F 37.0 °F 100% 29.49 in 0.8 mi South 3.5 mph - 0.01 in   Mist
9:24 PM 37.4 °F 34.9 °F 37.4 °F 100% 29.46 in 0.2 mi NE 3.5 mph - N/A Fog Fog
9:31 PM 37.4 °F - 37.4 °F 100% 29.46 in - Calm Calm - N/A   Overcast
9:50 PM 41.0 °F 38.0 °F 39.2 °F 93% 29.46 in 0.5 mi NNW 4.6 mph - N/A Fog Fog
9:54 PM 41.0 °F 39.0 °F 41.0 °F 100% 29.47 in 0.5 mi Variable 3.5 mph - N/A Fog Fog
10:07 PM 39.2 °F - 39.2 °F 100% 29.45 in - Calm Calm - N/A   Overcast
10:37 PM 39.2 °F - 39.2 °F 100% 29.45 in 1.2 mi Calm Calm - N/A   Overcast
10:50 PM 37.4 °F - 37.4 °F 100% 29.44 in - Calm Calm - 0.00 in Rain Light Rain
10:54 PM 37.9 °F - 37.9 °F 100% 29.45 in - Calm Calm - 0.00 in Rain Light Rain
11:15 PM 37.4 °F 33.8 °F 37.4 °F 100% 29.43 in 0.8 mi ESE 4.6 mph - 0.01 in   Overcast
11:32 PM 39.2 °F - 39.2 °F 100% 29.42 in 0.5 mi Calm Calm - 0.01 in Fog Fog
11:43 PM 37.4 °F - 37.4 °F 100% 29.41 in 0.8 mi Calm Calm - 0.01 in   Mist
11:54 PM 37.9 °F - 37.9 °F 100% 29.42 in - Calm Calm - 0.01 in Rain Light Rain